Regional Weather Roundup
Issued by NWS New Orleans/Baton Rouge, LA

Home | Current Version | Previous Version | Text Only | Print | Product List | Glossary On
Versions: 1 2 3 4 5 6 7 8 9 10 11 12 13 14 15 16 17 18 19 20 21 22 23 24 25 26 27 28 29 30 31 32 33 34 35 36 37 38 39 40 41 42 43 44 45 46 47 48
000
ASUS44 KLIX 252213
RWRLIX
NEW ORLEANS REGIONAL WEATHER ROUNDUP
NATIONAL WEATHER SERVICE NEW ORLEANS LA
500 PM CDT TUE APR 25 2017

NOTE: "FAIR" INDICATES FEW OR NO CLOUDS BELOW 12,000 FEET WITH NO
      SIGNIFICANT WEATHER AND/OR OBSTRUCTIONS TO VISIBILITY.
      SKY/WX - SKY CONDITION AND SIGNIFICANT WEATHER.
      TMP - AIR TEMPERATURE.     DP    - DEWPOINT TEMPERATURE.
      RH  - RELATIVE HUMIDITY.   PRES  - PRESSURE.
      HI  - HEAT INDEX.          WCI   - WIND CHILL INDEX.

*  THESE STATIONS ARE NOT NWS OR FAA STATIONS AND ARE NOT UNDER
   NWS QUALITY CONTROL.

LAZ038-040-048-061>063-065>067-069-252300-
SOUTHEAST LOUISIANA

CITY           SKY/WX    TMP DP  RH WIND       PRES   REMARKS
N.O. INTL ARPT MOSUNNY   76  58  53 S14       29.75F
N.O. LAKEFRONT SUNNY     78  59  51 S13       29.75F
N.O. DOWNTOWN*   N/A     79  58  48 S8          N/A
RESERVE*       NOT AVBL
SLIDELL        SUNNY     78  59  51 S13       29.74F
BATON ROUGE    SUNNY     81  58  45 SW13      29.71F
BOOTHVILLE     SUNNY     74  59  59 S12       29.78F
BELLE CHASSE   MOSUNNY   79  57  46 SW14      29.76F
BOGALUSA*      NOT AVBL
GALLIANO*      CLEAR     76  55  48 S9G17     29.77S
NEW ROADS*       N/A     79  60  52 S10G17    29.71F
GONZALES*        N/A     79  58  48 S12       29.73S
HAMMOND*       SUNNY     81  55  41 S8G17     29.73F
HOUMA*         SUNNY     75  61  60 S12       29.76F
PORT FOURCHON* CLEAR     75  57  53 S13       29.77F

$$

MSZ070-080>082-252300-
SOUTHERN MISSISSIPPI

CITY           SKY/WX    TMP DP  RH WIND       PRES   REMARKS
MCCOMB         SUNNY     79  54  41 S14       29.72F
GULFPORT       SUNNY     76  57  51 S12       29.77F
BILOXI         SUNNY     76  58  53 SW13      29.77F
PASCAGOULA     SUNNY     75  55  49 S8        29.78F
STENNIS ARPT*  SUNNY     77  50  38 SW9       29.76F

$$

COASTAL OBSERVATIONS
LAKE AND NEARSHORE STATIONS

STATION/POSITION TIME  TEMP    WIND        PRES    WAVE
                       AIR SEA DIR/SP/G            HT/PER
                 (UTC) (F)     (DEG/KT/KT) (MB)    (FT/S)
PASCAGOULA       2142   74     210/  8/ 14 1008.3
WAVELAND YACHT   2142   73 76  170/ 12/ 15 1007.8
GRAND ISLE       2142   74 73  200/  8/ 13 1008.0
SOUTHWEST PASS   2142          220/  5/  8   N/A
NEW CANAL        2142   76 77  210/  9/ 12 1007.4
SHELL BEACH      2142   74 73  190/ 11/ 15 1008.0

OFFSHORE STATIONS

STATION/POSITION TIME  TEMP    WIND        PRES    WAVE
                       AIR SEA DIR/SP/G            HT/PER
                 (UTC) (F)     (DEG/KT/KT) (MB)    (FT/S)
64 S DAUPHIN ISL 2150   72 75  210/  8/ 12 1009.1    1/ 2

$$




USA.gov is the U.S. government's official web portal to all federal, state and local government web resources and services.